Погода Бологое

Погода Бологое : погода сейчас, прогноз погоды и архив. Всё, что Вы хотите узнать о погоде Бологое!

Поиск расширенной информации на нашем сайте:

Другие новости

Новости СМИ2

Главная страница сайта

Новости сайта

03.07.2017

Напоминаем, что на нашем специализированном сайте Метеоцентр.Азия вы можете получить высокодетализированные автоматические прогнозы погоды по пунктам России, СНГ и мира в авиационном формате (включающие направление и скорость ветра, видимость, явления погоды, количество и форму облачности, нижнюю и верхнюю границу облачности).


Погода Бологое - сегодня

Время (UTC), дата Ветер
(°,м/с) 
Видим.   Явления Облачность Т
(°С)
Тd
(°С)
f(%) Тe
(°С)
Pmin
(гПа)
dP
(гПа)
Po
(мм)
O2
(г/м3)
Тmin Tmax R s Состояние
почвы
06 16.08.17 160 (Ю) 10 км    ясно 
+18.2 +11.7 66 +23  1029.1  755  283  +7.5        влажная 
09 16.08.17 130 (ЮВ) 20000 м    3/3 600 м 
[Cu med, cong]
+20.5 +8 44 +21  1028.6  -0.3  755  282           
12 16.08.17 130 (ЮВ) 20000 м    3/1 600 м верхняя 
[Cu med, cong|Ci fib]
+21.3 +8.3 43 +21  1027.2  -1.3  754  280           
15 16.08.17 130 (ЮВ) 20000 м    3/1 600 м верхняя 
[Cu med, cong|Ci fib]
+21.3 +9.2 46 +21  1026.2  -1  753  280           
18 16.08.17 110 (В) 10 км    4/3 600 м средняя 
[Sc|Ac cast]
+16.1 +11.4 74 +20  1026.2  -0.4  753  284    +21.8       
21 16.08.17 120 (ЮВ) 10 км    3/3 600 м 
[Sc]
+14.2 +10.9 81 +17  1026.4  753  286           
00 17.08.17 110 (В) 10 км    4/4 600 м 
[Sc]
+13.6 +11.1 85 +18  1026.3  -0.1  753  287           
03 17.08.17 110 (В) 4000 м  дымка  3/3 600 м 
[Sc]
+11.8 +10.6 92 +14  1026.1  -0.3  753  289  +11.8         
06 17.08.17 160 (Ю) 10 км    ясно 
+19.7 +12.7 64 +26  1025.4  0.1  753  280  +11.8        влажная 
09 17.08.17 150 (ЮВ) 20000 м    3/3 600 м 
[Cu med, cong]
+23.5 +13.4 53 +29  1024.6  -0.5  752  276           
12 17.08.17 140 (ЮВ) 20000 м    5/1 600 м средняя, верхняя 
[Cu med, cong|Ac cast|Cc]
+24.1 +11.3 45 +27  1024  -0.6  752  276           
15 17.08.17 140 (ЮВ) 20000 м    5/0 средняя, верхняя 
[Ac cast|Ci fib]
+23.9 +12.1 48 +28  1022.9  -1  751  276           
18 17.08.17 140 (ЮВ) 10 км    9/9 600 м 
[Sc]
+20.3 +13.8 66 +27  1022.9  -0.3  751  279    +25.4       
21 17.08.17 180 (Ю) 10 км    ясно 
+18.9 +13 69 +25  1022.9  -0.1  751  280           
00 18.08.17 160 (Ю) 10 км    3/0 средняя 
[Ac cast]
+17.1 +12.4 74 +22  1022.4  -0.6  750  282           
03 18.08.17 150 (ЮВ) 10 км    6/0 средняя, верхняя 
[Ac cast|Ci fib]
+16.3 +12.2 77 +21  1021.8  -0.6  750  283  +16         
06 18.08.17 150 (ЮВ) 10 км    9/6 600 м средняя 
[Sc|Ac cast]
+19.2 +14.5 74 +28  1021.3  -0.2  750  279  +16        сухая 
09 18.08.17 170 (Ю) 20000 м    6/0 средняя, верхняя 
[Ac cast|Cc]
+24 +17.1 65 +37  1020.3  -0.5  749  274           
12 18.08.17 190 (Ю) 20000 м    8/5 600 м кучево-дожд., средняя, верхняя 
[Cb cap|Ac cast|Ci fib]
+25.5 +15.9 55 +36  1019.3  -0.9  748  272           
15 18.08.17 260 (З) 5-14{14}  4000 м  гроза, ливневой дождь  10/10 600 м кучево-дожд. 
[Cb cap]
+20.1 +14.9 72 +29  1020.2  0.5  749  278         
18 18.08.17 150 (ЮВ) 1{14}  4000 м  дымка{гроза, ливн. осадки}  10/4 600 м средняя 
[Sc diur, vesp|Ac cast]
+16.6 +15.3 92 +27  1019.6  -0.9  748  281    +27     
21 18.08.17 170 (Ю) 4000 м  дымка  10/6 600 м средняя 
[Sc|Ac cast]
+17.2 +14.7 85 +26  1018.8  -0.7  748  280           
00 19.08.17 160 (Ю) 2{11}  4000 м  дымка{ливн. осадки}  9/9 600 м 
[Sc]
+17 +15.8 93 +28  1019  0.2  748  280           
03 19.08.17 180 (Ю) 4000 м  дымка  8/4 600 м средняя, верхняя 
[Sc|Ac cast|Ci fib]
+16.8 +14.8 88 +26  1018.4  -0.6  747  281  +16.4       
06 19.08.17 170 (Ю) 10 км    4/3 600 м средняя, верхняя 
[Sc|Ac cast|Ci fib]
+20.9 +16.1 74 +32  1018.3  0.3  747  276  +16.4      влажная 
Время (UTC), дата Ветер
(°,м/с) 
Видим.   Явления Облачность Т
(°С)
Тd
(°С)
f(%) Тe
(°С)
Pmin
(гПа)
dP
(гПа)
Po
(мм)
O2
(г/м3)
Тmin Tmax R s Состояние
почвы

Для получения пояснительной информации подведите курсор к названию столбца.

ПОГОДА Бологое - архив

Всё, что Вы хотите узнать о погоде Бологое - удобно и подробно!

Выберите нужную дату (начиная с 1 января 2015* года) и нажмите кнопку "Найти".
Будут отображены архивные сводки погоды по пункту Бологое, начиная с указанной даты.


Отображать данные в формате CSV (для использования в таблицах Excel)


Внимание! Наш архив погоды предназначен исключительно для личного некоммерческого использования в познавательных целях. Если Вам необходимы официальные справки о состоянии погоды (для производственных, юридических, коммерческих и т.п. целей), обращайтесь в органы Росгидромета.

*Примечание: данная дата относится к архиву по метеостанциям СССР (Россия, СНГ, Балтия).
Архив по метеостанциям Зарубежной Европы и Азии (кроме Китая) хранится 10 дней, по другим регионам земного шара (Китай, Африка, Америка, Австралия, Океания) - 1 день.

Бологое - район местоположения метеостанции


Название, широта, долгота, высота метеостанции:
Бологое 57.9°ш. 34.1°д. 188 м над ур. моря [Российская Федерация]

Дополнительная информация

В oтличие oт бoльшинства пoгoдных сайтoв мы публикуем пoдрoбную метеoинфoрмацию в детальнoм прoфессиoнальнoм фoрмате.

Характеристики температуры и влажнoсти вoздуха измеряются на высoте 2 м в тени вдали oт зданий и деревьев.
Скoрoсть ветра измеряется на высoте 10 м (на урoвне рoста челoвека скoрoсть ветра ниже в 1.5-2 раза). Если метеoстанция нахoдится в гoрoде или в лесу, тo скoрoсть ветра занижена на 2-4 м/с пo сравнению с oткрытым местoм. Скoрoсть ветра над акватoриями крупных рек и oзёр, а также на вершинах хoлмoв на 2-5 м/с выше, чем в oбычных услoвиях.
Атмoсфернoе давление в разных тoчках местнoсти мoжет значительнo oтличаться oт давления на метеoстанции, в зависимoсти oт услoвий рельефа (при пoдъёме на 10 м давление пoнижается примернo на 1 мм рт.ст.).